Location: Unnamed
(45.7828°N, 108.5339°W)
Time: 23:10:31
(UTC-06:00)

ISS - Visible Passes

Search period start: 21 June 2021 00:00
Search period end: 01 July 2021 00:00
Orbit: 417 x 422 km, 51.6° (Epoch: 21 June)

Date Brightness Start Highest point End Pass type
(mag) Time Alt. Az. Time Alt. Az. Time Alt. Az.
26 Jun -1.5 04:45:15 10° S 04:47:33 17° SE 04:49:51 10° E visible
27 Jun -1.1 03:59:28 10° SE 04:00:18 11° SE 04:01:09 10° ESE visible
28 Jun -3.0 04:45:56 10° SW 04:49:08 42° SE 04:52:22 10° ENE visible
29 Jun -2.3 03:59:53 16° S 04:01:46 27° SE 04:04:41 10° E visible
30 Jun -1.8 03:14:07 17° SE 03:14:28 17° SE 03:16:47 10° E visible
